K5SVV Weather Reports


Display with metric or nautical units.
time (UTC)temp
F
wind
direction
speed
MPH
gust
MPH
rain 1hr
in
rain 24hr
in
rain mn
in
humidity
%
barometer
mb
20260507195459 68 20 0.0 1.0 0.00 0.00 0.00 61 1016.1
20260507194957 68 18 1.0 2.0 0.00 0.00 0.00 60 1015.7
20260507194453 68 48 0.0 0.0 0.00 0.00 0.00 62 1016.0
20260507193949 68 17 3.0 6.0 0.00 0.00 0.00 60 1016.1
20260507193446 68 56 0.0 0.0 0.00 0.00 0.00 59 1016.1
20260507192943 68 9 4.0 4.0 0.00 0.00 0.00 57 1016.4
20260507192439 68 8 2.0 3.0 0.00 0.00 0.00 60 1016.4
20260507191936 68 28 0.0 1.0 0.00 0.00 0.00 59 1016.5
20260507191432 68 351 1.0 2.0 0.00 0.00 0.00 59 1016.7
20260507190929 69 22 4.0 4.0 0.00 0.00 0.00 56 1016.9
20260507190426 69 78 0.0 0.0 0.00 0.00 0.00 58 1017.1
20260507185925 69 166 0.0 0.0 0.00 0.00 0.00 58 1017.2
20260507185422 69 86 0.0 0.0 0.00 0.00 0.00 58 1017.0
20260507184919 69 86 0.0 0.0 0.00 0.00 0.00 60 1017.2
20260507184417 68 236 0.0 0.0 0.00 0.00 0.00 61 1017.1
20260507183914 69 1 6.0 7.0 0.00 0.00 0.00 60 1016.9
20260507183411 68 30 0.0 1.0 0.00 0.00 0.00 60 1016.8
20260507182908 68 34 5.0 7.0 0.00 0.00 0.00 62 1016.7
20260507182404 68 1 4.0 6.0 0.00 0.00 0.00 62 1016.6
20260507181900 68 54 5.0 9.0 0.00 0.00 0.00 62 1016.7
20260507181356 68 77 0.0 0.0 0.00 0.00 0.00 64 1016.6
20260507180854 68 1 2.0 4.0 0.00 0.00 0.00 63 1016.5
20260507180350 68 22 1.0 4.0 0.00 0.00 0.00 63 1017.1
20260507175846 68 4 8.0 10.0 0.00 0.00 0.00 62 1016.8
20260507175343 68 22 7.0 9.0 0.00 0.00 0.00 63 1016.9
20260507174841 67 48 0.0 0.0 0.00 0.00 0.00 63 1017.1
20260507174338 67 344 6.0 8.0 0.00 0.00 0.00 62 1017.0
20260507173835 68 6 10.0 11.0 0.00 0.00 0.00 62 1017.0
20260507173332 68 2 8.0 9.0 0.00 0.00 0.00 64 1016.9
20260507172828 68 15 3.0 3.0 0.00 0.00 0.00 65 1017.0
20260507172325 68 0 8.0 10.0 0.00 0.00 0.00 63 1017.1
20260507171821 67 27 0.0 0.0 0.00 0.00 0.00 64 1017.2
20260507171318 67 353 9.0 10.0 0.00 0.00 0.00 66 1017.4
20260507170815 67 46 0.0 0.0 0.00 0.00 0.00 68 1017.5
20260507170312 66 352 11.0 13.0 0.00 0.00 0.00 67 1017.3
20260507165807 66 348 6.0 8.0 0.00 0.00 0.00 67 1017.7
20260507165306 66 43 0.0 0.0 0.00 0.00 0.00 70 1017.7
20260507164759 66 4 5.0 7.0 0.00 0.00 0.00 68 1018.0
20260507164257 65 56 2.0 4.0 0.00 0.00 0.00 68 1018.1
20260507163754 65 14 5.0 7.0 0.00 0.00 0.00 70 1018.2
20260507163252 65 18 0.0 0.0 0.00 0.00 0.00 70 1018.4
20260507162747 65 59 4.0 8.0 0.00 0.00 0.00 71 1018.6
20260507162244 65 321 6.0 8.0 0.00 0.00 0.00 69 1018.4
20260507161741 64 18 2.0 2.0 0.00 0.00 0.00 70 1018.3
20260507161237 65 39 2.0 3.0 0.00 0.00 0.00 71 1018.3
20260507160733 64 86 0.0 0.0 0.00 0.00 0.00 70 1018.4
20260507160230 64 65 3.0 4.0 0.00 0.00 0.00 73 1018.3
20260507155726 64 30 2.0 4.0 0.00 0.00 0.00 71 1018.2
20260507155222 64 0 8.0 10.0 0.00 0.00 0.00 71 1018.3
20260507154719 63 22 8.0 10.0 0.00 0.00 0.00 72 1018.3
20260507154216 63 34 2.0 3.0 0.00 0.00 0.00 73 1018.0
20260507153712 63 23 7.0 8.0 0.00 0.00 0.00 74 1018.3
20260507153209 62 19 4.0 6.0 0.00 0.00 0.00 74 1018.5
20260507152706 62 349 2.0 4.0 0.00 0.00 0.00 76 1018.4
20260507152201 62 31 7.0 9.0 0.00 0.00 0.00 75 1018.3
20260507151658 62 34 2.0 4.0 0.00 0.00 0.00 76 1018.3
20260507151154 61 356 9.0 11.0 0.00 0.00 0.00 76 1018.6
20260507150652 61 41 4.0 4.0 0.00 0.00 0.00 75 1018.9
20260507150148 61 356 7.0 8.0 0.00 0.00 0.00 76 1018.8
20260507145643 60 12 6.0 7.0 0.00 0.00 0.00 77 1018.5
20260507145136 60 14 3.0 4.0 0.00 0.00 0.00 79 1019.1
20260507144632 59 3 4.0 6.0 0.00 0.00 0.00 79 1018.9
20260507144130 59 352 5.0 6.0 0.00 0.00 0.00 80 1019.0
20260507143626 59 345 0.0 0.0 0.00 0.00 0.00 80 1019.1
20260507143124 59 28 3.0 3.0 0.00 0.00 0.00 80 1018.9
20260507142619 58 17 6.0 7.0 0.00 0.00 0.00 81 1019.2
20260507142116 58 3 4.0 4.0 0.00 0.00 0.00 82 1019.2
20260507141613 57 28 3.0 6.0 0.00 0.00 0.00 83 1019.0
20260507141110 57 357 6.0 8.0 0.00 0.00 0.00 83 1019.0
20260507140606 58 341 6.0 8.0 0.00 0.00 0.00 83 1018.8
20260507140103 57 352 1.0 2.0 0.00 0.00 0.00 85 1018.6
20260507135600 57 352 0.0 0.0 0.00 0.00 0.00 85 1018.9
20260507135058 57 2 1.0 2.0 0.00 0.00 0.00 85 1019.1
20260507134554 57 13 0.0 0.0 0.00 0.00 0.00 85 1018.4
20260507134050 56 347 5.0 6.0 0.00 0.00 0.00 86 1019.0
20260507133546 56 359 0.0 1.0 0.00 0.00 0.00 87 1019.1
20260507133044 56 3 0.0 0.0 0.00 0.00 0.00 87 1019.0
20260507132540 56 8 0.0 0.0 0.00 0.00 0.00 88 1019.2
20260507132037 55 3 0.0 0.0 0.00 0.00 0.00 89 1019.1
20260507131534 55 341 0.0 0.0 0.00 0.00 0.00 90 1019.4
20260507131031 55 355 0.0 0.0 0.00 0.00 0.00 91 1019.3
20260507130528 55 337 0.0 0.0 0.00 0.00 0.00 91 1019.1
20260507130026 54 347 0.0 0.0 0.00 0.00 0.00 91 1019.3
20260507125524 54 266 0.0 0.0 0.00 0.00 0.00 92 1018.9
20260507125021 54 248 0.0 0.0 0.00 0.00 0.00 93 1018.9
20260507124518 54 227 0.0 0.0 0.00 0.00 0.00 93 1019.3
20260507124016 53 227 0.0 0.0 0.00 0.00 0.00 93 1019.1
20260507123514 53 227 0.0 0.0 0.00 0.00 0.00 93 1019.0
20260507123010 53 271 0.0 0.0 0.00 0.00 0.00 93 1019.7
20260507122505 53 284 0.0 0.0 0.00 0.00 0.00 93 1019.6
20260507122001 52 274 0.0 0.0 0.00 0.00 0.00 94 1019.5
20260507121457 52 280 0.0 0.0 0.00 0.00 0.00 94 1019.6
20260507120953 52 265 0.0 0.0 0.00 0.00 0.00 94 1019.2
20260507120449 52 255 0.0 0.0 0.00 0.00 0.00 94 1019.4
20260507115946 52 255 0.0 0.0 0.00 0.00 0.00 94 1019.7
20260507115442 52 254 0.0 0.0 0.00 0.00 0.00 94 1019.6
20260507114938 52 254 0.0 0.0 0.00 0.00 0.00 94 1019.4
20260507114435 52 255 0.0 0.0 0.00 0.00 0.00 94 1019.3
20260507113932 52 255 0.0 0.0 0.00 0.00 0.00 94 1019.2
20260507113429 52 265 0.0 0.0 0.00 0.00 0.00 94 1019.2
20260507112926 52 277 0.0 0.0 0.00 0.00 0.00 94 1019.2
20260507112424 52 287 0.0 0.0 0.00 0.00 0.00 94 1018.8
20260507111921 52 322 0.0 0.0 0.00 0.00 0.00 94 1018.6
20260507111418 52 337 0.0 0.0 0.00 0.00 0.00 94 1018.5
20260507110914 52 320 0.0 0.0 0.00 0.00 0.00 94 1018.6
20260507110410 52 312 0.0 0.0 0.00 0.00 0.00 94 1018.4
20260507105907 52 331 0.0 0.0 0.00 0.00 0.00 94 1018.3
20260507105404 52 324 0.0 0.0 0.00 0.00 0.00 94 1018.2
20260507104901 52 329 0.0 0.0 0.00 0.00 0.00 94 1017.8
20260507104357 52 318 0.0 0.0 0.00 0.00 0.00 94 1017.9
20260507103853 52 322 0.0 0.0 0.00 0.00 0.00 94 1017.7
20260507103350 52 306 0.0 0.0 0.00 0.00 0.00 94 1017.7
20260507102846 52 344 0.0 0.0 0.00 0.00 0.00 94 1017.6
20260507102343 52 331 0.0 0.0 0.00 0.00 0.00 94 1017.7
20260507101839 52 331 0.0 0.0 0.00 0.00 0.00 94 1017.5
20260507101334 52 343 0.0 0.0 0.00 0.00 0.00 94 1017.0
20260507100832 53 352 0.0 0.0 0.00 0.00 0.00 94 1017.2
20260507100329 53 355 0.0 0.0 0.00 0.00 0.00 93 1017.2
20260507095827 53 1 0.0 0.0 0.00 0.00 0.00 94 1017.0
20260507095323 53 14 0.0 0.0 0.00 0.00 0.00 93 1016.8
20260507094821 53 348 0.0 0.0 0.00 0.00 0.00 93 1017.0
20260507094317 53 1 0.0 0.0 0.00 0.00 0.00 93 1017.0
20260507093814 53 41 0.0 2.0 0.00 0.00 0.00 93 1016.8
20260507093313 53 21 0.0 0.0 0.00 0.00 0.00 94 1016.5
20260507092810 53 16 0.0 1.0 0.00 0.00 0.00 94 1016.6
20260507092307 53 75 0.0 0.0 0.00 0.00 0.00 94 1016.6
20260507091803 53 17 0.0 0.0 0.00 0.00 0.00 94 1016.4
20260507091300 53 22 0.0 0.0 0.00 0.00 0.00 94 1016.3
20260507090759 53 350 0.0 1.0 0.00 0.00 0.00 94 1016.8
20260507090257 53 7 0.0 0.0 0.00 0.00 0.00 93 1016.8
20260507085754 54 10 0.0 0.0 0.00 0.00 0.00 93 1016.9
20260507085250 54 23 0.0 0.0 0.00 0.00 0.00 93 1016.7
20260507084748 54 11 0.0 0.0 0.00 0.00 0.00 93 1016.8
20260507084244 54 21 0.0 0.0 0.00 0.00 0.00 93 1016.6
20260507083742 54 359 0.0 0.0 0.00 0.00 0.00 93 1016.4
20260507083238 54 5 0.0 0.0 0.00 0.00 0.00 92 1016.2
20260507082734 54 36 1.0 3.0 0.00 0.00 0.00 92 1016.3
20260507082230 55 23 1.0 4.0 0.00 0.00 0.00 92 1016.4
20260507081727 55 43 1.0 4.0 0.00 0.00 0.00 92 1016.5
20260507081223 55 1 0.0 0.0 0.00 0.00 0.00 92 1016.5
20260507080720 55 12 0.0 0.0 0.00 0.00 0.00 92 1016.4
20260507080216 55 7 0.0 0.0 0.00 0.00 0.00 92 1016.4
20260507075711 55 12 1.0 2.0 0.00 0.00 0.00 92 1016.2
20260507075208 55 3 4.0 8.0 0.00 0.00 0.00 92 1016.3
20260507074704 55 19 0.0 0.0 0.00 0.00 0.00 92 1016.3
20260507074203 54 27 0.0 0.0 0.00 0.00 0.00 92 1016.3
20260507073659 54 30 1.0 3.0 0.00 0.00 0.00 92 1016.1
20260507073155 55 35 1.0 2.0 0.00 0.00 0.00 92 1015.8
20260507072653 55 2 0.0 0.0 0.00 0.00 0.00 92 1015.8
20260507072150 55 41 0.0 1.0 0.00 0.00 0.00 91 1015.7
20260507071648 55 40 0.0 0.0 0.00 0.00 0.00 91 1015.6
20260507071144 55 17 0.0 0.0 0.00 0.00 0.00 91 1015.4
20260507070641 55 33 0.0 1.0 0.00 0.00 0.00 90 1015.5
20260507070138 55 45 0.0 0.0 0.00 0.00 0.00 90 1015.4
20260507065634 55 38 0.0 0.0 0.00 0.00 0.00 89 1015.5
20260507065131 55 5 0.0 0.0 0.00 0.00 0.00 89 1015.4
20260507064629 55 15 1.0 3.0 0.00 0.00 0.00 88 1015.5
20260507064127 55 52 0.0 1.0 0.00 0.00 0.00 88 1015.8
20260507063624 56 40 1.0 4.0 0.00 0.00 0.00 87 1015.7
20260507063121 56 25 0.0 2.0 0.00 0.00 0.00 87 1015.7
20260507062618 56 45 3.0 6.0 0.00 0.00 0.00 87 1016.1
20260507062116 56 13 3.0 6.0 0.00 0.00 0.00 87 1015.8
20260507061613 56 28 4.0 6.0 0.00 0.00 0.00 87 1015.8
20260507061111 56 46 1.0 2.0 0.00 0.00 0.00 87 1016.0
20260507060609 56 347 0.0 0.0 0.00 0.00 0.00 87 1015.8
20260507060105 56 69 1.0 2.0 0.00 0.00 0.00 87 1015.5
20260507055601 56 36 0.0 0.0 0.00 0.00 0.00 87 1015.8
20260507055057 57 33 0.0 0.0 0.00 0.00 0.00 87 1015.8
20260507054553 57 30 0.0 1.0 0.00 0.00 0.00 87 1015.8
20260507054050 57 9 3.0 7.0 0.00 0.00 0.00 87 1015.8
20260507053548 57 59 3.0 7.0 0.00 0.00 0.00 87 1015.8
20260507053047 57 31 2.0 6.0 0.00 0.00 0.00 87 1015.9
20260507052544 57 62 1.0 3.0 0.00 0.00 0.00 87 1015.7
20260507052040 57 33 1.0 3.0 0.00 0.00 0.00 86 1015.6
20260507051538 57 34 1.0 3.0 0.00 0.00 0.00 86 1015.6
20260507051035 57 49 0.0 0.0 0.00 0.00 0.00 87 1015.8
20260507050531 57 19 1.0 4.0 0.00 0.00 0.00 87 1016.0
20260507050028 57 30 1.0 3.0 0.00 0.00 0.00 87 1015.9
20260507045524 57 29 0.0 0.0 0.00 0.00 0.00 87 1016.0
20260507045022 57 25 0.0 1.0 0.00 0.00 0.00 87 1016.0
20260507044518 58 42 0.0 1.0 0.00 0.00 0.00 86 1016.2
20260507044015 58 45 0.0 0.0 0.00 0.00 0.00 86 1016.0
20260507043511 58 61 1.0 4.0 0.00 0.00 0.00 86 1016.2
20260507043009 58 41 1.0 2.0 0.00 0.00 0.00 86 1016.1
20260507042504 58 53 1.0 1.0 0.00 0.00 0.00 86 1016.4
20260507042000 58 34 2.0 7.0 0.00 0.00 0.00 86 1016.2
20260507041457 58 13 1.0 3.0 0.00 0.00 0.00 86 1016.2
20260507040954 58 20 2.0 4.0 0.00 0.00 0.00 86 1016.2
20260507040450 58 27 0.0 0.0 0.00 0.00 0.00 85 1016.2
20260507035946 58 19 3.0 4.0 0.00 0.00 0.00 85 1016.4
20260507035443 58 30 0.0 0.0 0.00 0.00 0.00 86 1016.2
20260507034939 58 53 2.0 3.0 0.00 0.00 0.00 86 1016.2
20260507034436 58 13 6.0 9.0 0.00 0.00 0.00 86 1016.5
20260507033935 58 30 1.0 2.0 0.00 0.00 0.00 86 1016.2
20260507033432 59 21 2.0 6.0 0.00 0.00 0.00 86 1016.3
20260507032928 58 53 1.0 2.0 0.00 0.00 0.00 85 1016.3
20260507032426 58 353 12.0 14.0 0.00 0.00 0.00 86 1016.2
20260507031921 58 358 10.0 11.0 0.00 0.00 0.00 87 1016.2
20260507031418 58 6 2.0 7.0 0.00 0.00 0.00 88 1016.2
20260507030915 58 2 6.0 7.0 0.00 0.00 0.00 89 1015.9
20260507030412 58 14 1.0 3.0 0.00 0.00 0.00 89 1015.6
20260507025909 58 0 4.0 4.0 0.00 0.00 0.00 89 1015.8
20260507025407 58 32 2.0 6.0 0.00 0.00 0.00 89 1015.5
20260507024904 58 349 0.0 1.0 0.00 0.00 0.00 89 1015.6
20260507024402 58 9 6.0 9.0 0.00 0.00 0.00 89 1015.6
20260507023857 58 9 1.0 4.0 0.00 0.00 0.00 89 1015.4
20260507023354 58 47 0.0 2.0 0.00 0.00 0.00 89 1015.6
20260507022852 58 56 5.0 8.0 0.00 0.00 0.00 89 1015.0
20260507022348 58 10 2.0 8.0 0.00 0.00 0.00 89 1015.2
20260507021844 58 16 0.0 3.0 0.00 0.00 0.00 89 1014.9
20260507021339 58 7 0.0 2.0 0.00 0.00 0.00 89 1015.0
20260507020837 58 14 0.0 0.0 0.00 0.00 0.00 89 1014.6
20260507020334 58 10 0.0 0.0 0.00 0.00 0.00 89 1014.7
20260507015831 58 33 0.0 0.0 0.00 0.00 0.00 89 1014.5
20260507015328 58 30 0.0 0.0 0.00 0.00 0.00 89 1014.5
20260507014820 58 15 0.0 0.0 0.00 0.00 0.00 89 1014.4
20260507014316 58 7 0.0 0.0 0.00 0.00 0.00 90 1014.2
20260507013812 58 16 0.0 0.0 0.00 0.00 0.00 90 1014.2
20260507013310 58 19 0.0 0.0 0.00 0.00 0.00 90 1014.0
20260507012808 58 29 0.0 1.0 0.00 0.00 0.00 91 1013.7
20260507012306 58 356 0.0 0.0 0.00 0.00 0.00 91 1013.8
20260507011801 58 79 0.0 0.0 0.00 0.00 0.00 91 1013.5
20260507011257 58 334 0.0 0.0 0.00 0.00 0.00 91 1013.3
20260507010756 58 43 0.0 0.0 0.00 0.00 0.00 91 1013.3
20260507010252 59 37 0.0 0.0 0.00 0.00 0.00 91 1013.5
20260507005750 59 44 0.0 0.0 0.00 0.00 0.00 91 1013.1
20260507005246 59 20 0.0 0.0 0.00 0.00 0.00 90 1013.2
20260507004743 59 41 0.0 0.0 0.00 0.00 0.00 89 1013.2
20260507004241 59 0 1.0 3.0 0.00 0.00 0.00 88 1013.3
20260507003737 59 3 0.0 1.0 0.00 0.00 0.00 87 1013.4
20260507003232 59 322 0.0 1.0 0.00 0.00 0.00 87 1013.6
20260507002729 59 343 0.0 1.0 0.00 0.00 0.00 87 1013.3
20260507002225 59 339 1.0 4.0 0.00 0.00 0.00 86 1013.4
20260507001721 60 335 1.0 4.0 0.00 0.00 0.00 85 1013.4
20260507001219 60 8 6.0 8.0 0.00 0.00 0.00 82 1012.9
20260507000715 60 358 6.0 8.0 0.00 0.00 0.00 81 1013.1
20260507000212 60 357 2.0 4.0 0.00 0.00 0.00 81 1013.1
20260506235708 60 357 2.0 3.0 0.00 0.00 0.00 81 1012.7
20260506235203 60 355 5.0 7.0 0.00 0.00 0.00 81 1012.6
20260506234700 60 348 4.0 8.0 0.00 0.00 0.00 81 1012.8
20260506234158 60 346 0.0 0.0 0.00 0.00 0.00 81 1012.7
20260506233655 60 1 8.0 10.0 0.00 0.00 0.00 80 1012.7
20260506233152 60 11 0.0 0.0 0.00 0.00 0.00 81 1012.4
20260506232648 60 359 5.0 7.0 0.00 0.00 0.00 81 1012.7
20260506232143 60 32 4.0 4.0 0.00 0.00 0.00 81 1012.7
20260506231640 60 349 8.0 9.0 0.00 0.00 0.00 81 1012.7
20260506231139 60 349 7.0 9.0 0.00 0.00 0.00 81 1012.7
20260506230636 60 9 6.0 8.0 0.00 0.00 0.00 81 1012.7
20260506230132 60 344 7.0 8.0 0.00 0.00 0.00 81 1012.7
20260506225629 60 4 7.0 8.0 0.00 0.00 0.00 81 1012.8
20260506225125 60 344 8.0 9.0 0.00 0.00 0.00 81 1012.6
20260506224622 60 348 0.0 0.0 0.00 0.00 0.00 81 1012.9
20260506224119 60 2 0.0 2.0 0.00 0.00 0.00 82 1012.8
20260506223615 60 3 4.0 6.0 0.00 0.00 0.00 81 1012.6
20260506223111 60 15 5.0 7.0 0.00 0.00 0.00 81 1012.8
20260506222608 60 0 9.0 10.0 0.00 0.00 0.00 81 1012.4
20260506222104 60 339 5.0 6.0 0.00 0.00 0.00 81 1012.5
20260506221602 60 345 9.0 10.0 0.00 0.00 0.00 81 1012.2
20260506221100 60 340 6.0 7.0 0.00 0.00 0.00 81 1012.1
20260506220556 60 36 4.0 4.0 0.00 0.00 0.00 82 1012.5
20260506220051 60 335 4.0 6.0 0.00 0.00 0.00 82 1012.3
20260506215549 60 0 6.0 7.0 0.00 0.00 0.00 82 1012.2
20260506215044 60 334 3.0 3.0 0.00 0.00 0.00 83 1012.5
20260506214541 60 306 5.0 7.0 0.00 0.00 0.00 82 1012.3
20260506214039 60 309 4.0 6.0 0.00 0.00 0.00 82 1012.1
20260506213537 60 331 5.0 6.0 0.00 0.00 0.00 82 1012.1
20260506213033 60 325 7.0 8.0 0.00 0.00 0.00 82 1012.2
20260506212530 60 344 6.0 7.0 0.00 0.00 0.00 82 1012.4
20260506212025 60 352 7.0 9.0 0.00 0.00 0.00 82 1012.2
20260506211521 60 8 3.0 7.0 0.00 0.00 0.00 82 1012.3
20260506211019 60 339 0.0 0.0 0.00 0.00 0.00 82 1012.5
20260506210515 60 18 9.0 10.0 0.00 0.00 0.00 83 1012.2
20260506210012 59 314 7.0 9.0 0.00 0.00 0.00 82 1012.1
20260506205508 60 10 10.0 11.0 0.00 0.00 0.00 82 1012.1
20260506205004 59 18 8.0 8.0 0.00 0.00 0.00 83 1012.2
20260506204502 59 299 7.0 9.0 0.00 0.00 0.00 84 1012.4
20260506203959 59 358 12.0 14.0 0.00 0.00 0.00 83 1012.7
20260506203457 59 350 7.0 9.0 0.00 0.00 0.00 84 1012.4
20260506202953 58 352 7.0 9.0 0.00 0.00 0.00 84 1012.5
20260506202451 58 323 10.0 11.0 0.00 0.00 0.00 84 1012.8
20260506201947 58 343 6.0 7.0 0.00 0.00 0.00 85 1012.8
20260506201444 58 14 6.0 7.0 0.00 0.00 0.00 85 1012.9
20260506200941 57 353 1.0 4.0 0.00 0.00 0.00 86 1013.2
20260506200437 57 354 6.0 8.0 0.00 0.00 0.00 87 1013.2
20260506195933 57 339 4.0 7.0 0.00 0.00 0.00 87 1013.5